Location: Bouchavesnes-Bergen
(49.9859°N, 2.9203°E)
Time: 02:32:16
(UTC+00:00)

Envisat - Pass Details

Date: 06 February 2023
Orbit: 763 x 765 km, 98.2° (Epoch: 30 March)

Event Time Altitude Azimuth Distance (km) Brightness Sun altitude
Rises 03:49:08 0° 16° (NNE) 3,246 6.6 -33.2°
Reaches altitude 10° 03:51:29 10° 19° (NNE) 2,315 5.8 -32.8°
Enters shadow 03:54:38 38° 33° (NNE) 1,172 4.2 -32.3°
